FALCON 9 DEB, 52893

Orbit data source: Space-Track

FALCON 9 DEB, 52893 is space debris in LEO originally from a launch on Sun, 19 Jun 2022 UTC launched from the Air Force Eastern Test Range (AFETR). Debris objects in space refer to the collection of defunct objects orbiting the Earth. Examples of debris include non-operational satellites, rocket bodies, and fragments generated from explosions, collisions, or faulty payload assembly.

Loading next visibility...
Identifier
52893, 2022-064F
Orbit
LEO
Country
Flag of USUS
Related business
Manufacturer
SpaceX/Seattle
Mission
Spacecraft
Bus & Motor
Unknown
Mass
~50 kg wet, ~50 kg dry
Launch date (UTC)
2022-06-19 (4 years ago)
Launch vehicle
Unknown
Launch site
Air Force Eastern Test Range (AFETR)
Object type
Payload
Rocket body
Debris
Shape & HBR
Cyl, 3.5 m
Radar Cross Section
0.110 m², Medium (>0.1 m² and < 1m²)

Expand to show TLE details & history
Last TLE update: 19 hours ago

TLE from 19 hours ago
0 FALCON 9 DEB
1 52893U 22064F   26254.42839606  .00005079  00000-0  14341-3 0  9995
2 52893  52.9867 282.3940 0007888  74.0687 286.1184 15.38153932193000
Epoch: 2026-09-11T10:16Z
TLE epoch observation values (Epoch: 2026-09-11T10:16:53.419Z)
Latitude
Longitude
137.71953°
Altitude
450.961 km
Speed
7.644 km/s
True Right ascension
18h 49m 34s
True Declination
0° 00' 00"
Sunlit
Object was in full shadow at epoch
Visualization orbit readout
Latitude
Unknown
Longitude
Unknown
Altitude
Unknown
Speed
Unknown
Apparent Right ascension
Unknown
Apparent Declination
Unknown
Sunlit
N/A
Visualization observer readout
Local Sidereal Time
21:22:01
Azimuth
Unknown
Elevation
Unknown
Doppler factor
Unknown
Orbital elements
Apogee altitude
457.241 km
Perigee altitude
446.466 km
Semi-major axis
6,829.991 km
Eccentricity
0.00079
Inclination
52.9867°
RAAN
282.394°
Arg. of periapsis
74.0687°
True anomaly
286.03154°
Mean anomaly
286.1184°
Eccentric anomaly
286.07497°
Mean motion
3.84515 °/min
Orbital period
93.62 mins
BSTAR
0.00014341
Loading maneuver chart data...
Computing Atmospheric mass density...
Loading historical data...
Loading historical data...
Loading historical data...
Loading historical data...
Loading historical data...
Loading historical data...
Loading historical data...
Other satellites on launch #64 in the year 2022 (2022-06-19 UTC)

Documentation

Showing up to 5 results
|